Weather in Kuala Belait

Brunei     4°34′45″N   114°13′03″E
temp.,
°C
wind,
m/s
gust,
m/s
humid.,
%
clouds,
%
prec.,
mm/h
press.,
hPa
HPBL,
m
22 january, sat
sat2223:00+23sse1197100 0.8 101134
02:00+23sse1198100 0.8 101031
05:00+22sse129970 0.0 100959
08:00+24sse1294100 0.0 1010141
11:00+30ssw116351 0.0 1010968
14:00+29nw336770 0.1 1007793
17:00+28nw237141 0.3 1006684
20:00+24nw1189100 0.3 100911
23 january, sun
sun2323:00+24se009399 0.0 100912
02:00+23ssw119698 0.0 100823
05:00+23s119767 0.0 100837
08:00+25sse1386100 0.0 1010209
11:00+30ssw1261100 0.0 1009951
14:00+31nnw3261100 0.1 10061156
17:00+28nnw2371100 0.1 1006694
20:00+25n1189100 0.1 100813
24 january, mon
mon2423:00+24ene119199 0.0 100912
02:00+24se1195100 0.0 100716
05:00+23sse119797 0.6 100727
08:00+25sse11892 0.3 1009170
11:00+31nnw115925 0.1 10091210
14:00+31nnw335978 0.8 10061378
17:00+28nnw347123 0.1 1006930
20:00+25nne1591100 0.2 1008129
25 january, tue
tue2523:00+24ne1392100 0.1 100888
02:00+24e1196100 0.2 100723
05:00+23ese119839 0.4 100734
08:00+25ese128845 0.6 1008191
11:00+30ne236236 0.6 10081304
14:00+31n33595 1.0 10061320
17:00+28n357038 0.0 1006804
20:00+25nne139099 0.0 100880
26 january, wed
wed2623:00+24ne129270 0.0 100866
02:00+24e1194100 0.0 100719
05:00+23se1198100 0.1 100735
08:00+25se1188100 0.1 1008142
11:00+31ne1259100 0.0 10081186
14:00+32nnw325578 0.1 10051536
17:00+29nnw336710 0.1 1005794
20:00+25nw1189100 0.1 100741